SES-10 (42432 NORAD) Tracking and Keplerian Element Data

This shows tracking and keplerian element data for the satellite.

Feedback or suggestion? Click here.




ElementValue
Catalog42432
NameSES-10
Epoch Orbit757
Epoch Day113.51996458
Epoch Year2019
RAAN273.9605
Inclination0.0157
Eccentricity0.0002873
Argument of Perigee134.1252
Mean Anonmoly283.4661
Mean Motion1.00272257
Decay Rate-2.88E-06
L11 42432U 17017A 19113.51996458 -.00000288 00000-0 00000-0 0 9992
L22 42432 0.0157 273.9605 0002873 134.1252 283.4661 1.00272257 7575

Live tracking and technical data element details for SES-10 (NORAD 42432). SES-10 can be tracked NOW for your location showing map with azimuth and elevation plus other details from your city location.

Track the satellite on the map from your city or location and see movement details for azimuth, elevation, latitude, longitude, range, height, and movement on the map or in text.







IsCatalogInMostPopularTable: catalog: 42432, numindb: 217
Update: records affected: 1



GetName: 42432 SES-10

Hit Count: updated at: Wed, 24 Apr 2019 18:18:03 GMT